utcTime,localTime,pm25,nowcast
2022-09-09 15:00:00 +0000,2022-09-09 08:00:00 -0700,25.2,NA
2022-09-09 16:00:00 +0000,2022-09-09 09:00:00 -0700,20.2,22.4
2022-09-09 17:00:00 +0000,2022-09-09 10:00:00 -0700,34.1,28.2
2022-09-09 18:00:00 +0000,2022-09-09 11:00:00 -0700,40.1,34.8
2022-09-09 19:00:00 +0000,2022-09-09 12:00:00 -0700,NA,NA
2022-09-09 20:00:00 +0000,2022-09-09 13:00:00 -0700,19.1,24.1
2022-09-09 21:00:00 +0000,2022-09-09 14:00:00 -0700,18.9,21.1
2022-09-09 22:00:00 +0000,2022-09-09 15:00:00 -0700,15.9,18.3
2022-09-09 23:00:00 +0000,2022-09-09 16:00:00 -0700,11.1,14.5
2022-09-10 00:00:00 +0000,2022-09-09 17:00:00 -0700,11.3,12.9
2022-09-10 01:00:00 +0000,2022-09-09 18:00:00 -0700,13.3,13.1
2022-09-10 02:00:00 +0000,2022-09-09 19:00:00 -0700,22.1,17.6
2022-09-10 03:00:00 +0000,2022-09-09 20:00:00 -0700,29.5,23.5
2022-09-10 04:00:00 +0000,2022-09-09 21:00:00 -0700,31.7,27.6
2022-09-10 05:00:00 +0000,2022-09-09 22:00:00 -0700,32.5,30
2022-09-10 06:00:00 +0000,2022-09-09 23:00:00 -0700,33.9,31.9
2022-09-10 07:00:00 +0000,2022-09-10 00:00:00 -0700,38.2,35
2022-09-10 08:00:00 +0000,2022-09-10 01:00:00 -0700,39.3,37.1
2022-09-10 09:00:00 +0000,2022-09-10 02:00:00 -0700,37.9,37.5
2022-09-10 10:00:00 +0000,2022-09-10 03:00:00 -0700,37.6,37.5
2022-09-10 11:00:00 +0000,2022-09-10 04:00:00 -0700,39.4,38.4
2022-09-10 12:00:00 +0000,2022-09-10 05:00:00 -0700,39,38.7
2022-09-10 13:00:00 +0000,2022-09-10 06:00:00 -0700,39.6,39
2022-09-10 14:00:00 +0000,2022-09-10 07:00:00 -0700,39.1,38.5
2022-09-10 15:00:00 +0000,2022-09-10 08:00:00 -0700,38.4,38.3
2022-09-10 16:00:00 +0000,2022-09-10 09:00:00 -0700,36.5,38
2022-09-10 17:00:00 +0000,2022-09-10 10:00:00 -0700,28.5,35.3
2022-09-10 18:00:00 +0000,2022-09-10 11:00:00 -0700,22.1,28.5
2022-09-10 19:00:00 +0000,2022-09-10 12:00:00 -0700,18.6,23
2022-09-10 20:00:00 +0000,2022-09-10 13:00:00 -0700,16.5,19.7
2022-09-10 21:00:00 +0000,2022-09-10 14:00:00 -0700,NA,NA
2022-09-10 22:00:00 +0000,2022-09-10 15:00:00 -0700,13.9,15.8
2022-09-10 23:00:00 +0000,2022-09-10 16:00:00 -0700,15.9,15.8
2022-09-11 00:00:00 +0000,2022-09-10 17:00:00 -0700,16.6,16.2
2022-09-11 01:00:00 +0000,2022-09-10 18:00:00 -0700,18.5,17.4
2022-09-11 02:00:00 +0000,2022-09-10 19:00:00 -0700,18.8,18.1
2022-09-11 03:00:00 +0000,2022-09-10 20:00:00 -0700,19.1,18.6
2022-09-11 04:00:00 +0000,2022-09-10 21:00:00 -0700,19.6,19.1
2022-09-11 05:00:00 +0000,2022-09-10 22:00:00 -0700,21.1,19.6
2022-09-11 06:00:00 +0000,2022-09-10 23:00:00 -0700,22.3,20.6
2022-09-11 07:00:00 +0000,2022-09-11 00:00:00 -0700,22.9,21.6
2022-09-11 08:00:00 +0000,2022-09-11 01:00:00 -0700,23.9,22.6
2022-09-11 09:00:00 +0000,2022-09-11 02:00:00 -0700,24.3,23.3
2022-09-11 10:00:00 +0000,2022-09-11 03:00:00 -0700,25.5,24
2022-09-11 11:00:00 +0000,2022-09-11 04:00:00 -0700,25.1,24.3
2022-09-11 12:00:00 +0000,2022-09-11 05:00:00 -0700,25.7,24.4
2022-09-11 13:00:00 +0000,2022-09-11 06:00:00 -0700,26.5,25.1
2022-09-11 14:00:00 +0000,2022-09-11 07:00:00 -0700,28,26.1
2022-09-11 15:00:00 +0000,2022-09-11 08:00:00 -0700,28.1,26.7
2022-09-11 16:00:00 +0000,2022-09-11 09:00:00 -0700,27.1,26.6
2022-09-11 17:00:00 +0000,2022-09-11 10:00:00 -0700,25.8,26.3
2022-09-11 18:00:00 +0000,2022-09-11 11:00:00 -0700,25.6,26.2
2022-09-11 19:00:00 +0000,2022-09-11 12:00:00 -0700,26.7,26.3
2022-09-11 20:00:00 +0000,2022-09-11 13:00:00 -0700,26.8,26.4
2022-09-11 21:00:00 +0000,2022-09-11 14:00:00 -0700,27.5,26.6
2022-09-11 22:00:00 +0000,2022-09-11 15:00:00 -0700,28.6,27
2022-09-11 23:00:00 +0000,2022-09-11 16:00:00 -0700,27.9,27.1
2022-09-12 00:00:00 +0000,2022-09-11 17:00:00 -0700,28.4,27.4
2022-09-12 01:00:00 +0000,2022-09-11 18:00:00 -0700,28.6,27.6
2022-09-12 02:00:00 +0000,2022-09-11 19:00:00 -0700,30,28
2022-09-12 03:00:00 +0000,2022-09-11 20:00:00 -0700,34.2,29.9
2022-09-12 04:00:00 +0000,2022-09-11 21:00:00 -0700,37.3,32.6
2022-09-12 05:00:00 +0000,2022-09-11 22:00:00 -0700,50.6,42.4
2022-09-12 06:00:00 +0000,2022-09-11 23:00:00 -0700,53.2,47.8
2022-09-12 07:00:00 +0000,2022-09-12 00:00:00 -0700,64.2,56
2022-09-12 08:00:00 +0000,2022-09-12 01:00:00 -0700,NA,NA
2022-09-12 09:00:00 +0000,2022-09-12 02:00:00 -0700,60.6,59
2022-09-12 10:00:00 +0000,2022-09-12 03:00:00 -0700,63.6,61.6
2022-09-12 11:00:00 +0000,2022-09-12 04:00:00 -0700,72.9,67.6
2022-09-12 12:00:00 +0000,2022-09-12 05:00:00 -0700,51.3,59.2
2022-09-12 13:00:00 +0000,2022-09-12 06:00:00 -0700,53.4,56.2
2022-09-12 14:00:00 +0000,2022-09-12 07:00:00 -0700,58.2,57.2
2022-09-12 15:00:00 +0000,2022-09-12 08:00:00 -0700,57.9,57.5
2022-09-12 16:00:00 +0000,2022-09-12 09:00:00 -0700,52,56.1
2022-09-12 17:00:00 +0000,2022-09-12 10:00:00 -0700,51.8,54.9
2022-09-12 18:00:00 +0000,2022-09-12 11:00:00 -0700,52.8,54.2
2022-09-12 19:00:00 +0000,2022-09-12 12:00:00 -0700,53.7,54
2022-09-12 20:00:00 +0000,2022-09-12 13:00:00 -0700,54.8,54.2
2022-09-12 21:00:00 +0000,2022-09-12 14:00:00 -0700,61.8,56.5
2022-09-12 22:00:00 +0000,2022-09-12 15:00:00 -0700,59.8,57.4
2022-09-12 23:00:00 +0000,2022-09-12 16:00:00 -0700,51.8,55.4
2022-09-13 00:00:00 +0000,2022-09-12 17:00:00 -0700,49,54.1
2022-09-13 01:00:00 +0000,2022-09-12 18:00:00 -0700,48.9,53
2022-09-13 02:00:00 +0000,2022-09-12 19:00:00 -0700,50,52.2
2022-09-13 03:00:00 +0000,2022-09-12 20:00:00 -0700,46.6,50.5
2022-09-13 04:00:00 +0000,2022-09-12 21:00:00 -0700,35.3,43
2022-09-13 05:00:00 +0000,2022-09-12 22:00:00 -0700,35.8,39.9
2022-09-13 06:00:00 +0000,2022-09-12 23:00:00 -0700,34,37
2022-09-13 07:00:00 +0000,2022-09-13 00:00:00 -0700,33.7,35.4
2022-09-13 08:00:00 +0000,2022-09-13 01:00:00 -0700,33.4,34.4
2022-09-13 09:00:00 +0000,2022-09-13 02:00:00 -0700,33.4,34
2022-09-13 10:00:00 +0000,2022-09-13 03:00:00 -0700,39.5,36.4
2022-09-13 11:00:00 +0000,2022-09-13 04:00:00 -0700,48.4,40.4
2022-09-13 12:00:00 +0000,2022-09-13 05:00:00 -0700,50.6,43.9
2022-09-13 13:00:00 +0000,2022-09-13 06:00:00 -0700,42.2,43.3
2022-09-13 14:00:00 +0000,2022-09-13 07:00:00 -0700,47.8,44.8
2022-09-13 15:00:00 +0000,2022-09-13 08:00:00 -0700,24,35
2022-09-13 16:00:00 +0000,2022-09-13 09:00:00 -0700,20.6,27.8
2022-09-13 17:00:00 +0000,2022-09-13 10:00:00 -0700,20.1,23.9
2022-09-13 18:00:00 +0000,2022-09-13 11:00:00 -0700,20.2,22
2022-09-13 19:00:00 +0000,2022-09-13 12:00:00 -0700,20.4,21.2
2022-09-13 20:00:00 +0000,2022-09-13 13:00:00 -0700,21.6,21.4
2022-09-13 21:00:00 +0000,2022-09-13 14:00:00 -0700,21.6,21.5
2022-09-13 22:00:00 +0000,2022-09-13 15:00:00 -0700,20.9,21.2
2022-09-13 23:00:00 +0000,2022-09-13 16:00:00 -0700,19.9,20.5
2022-09-14 00:00:00 +0000,2022-09-13 17:00:00 -0700,19.9,20.2
2022-09-14 01:00:00 +0000,2022-09-13 18:00:00 -0700,18.7,19.4
2022-09-14 02:00:00 +0000,2022-09-13 19:00:00 -0700,18.2,19.6
2022-09-14 03:00:00 +0000,2022-09-13 20:00:00 -0700,18.1,19.4
2022-09-14 04:00:00 +0000,2022-09-13 21:00:00 -0700,18.7,19.3
2022-09-14 05:00:00 +0000,2022-09-13 22:00:00 -0700,19.3,19.2
2022-09-14 06:00:00 +0000,2022-09-13 23:00:00 -0700,19.6,19.3
2022-09-14 07:00:00 +0000,2022-09-14 00:00:00 -0700,19.6,19.3
2022-09-14 08:00:00 +0000,2022-09-14 01:00:00 -0700,18.9,19.2
2022-09-14 09:00:00 +0000,2022-09-14 02:00:00 -0700,18,18.9
2022-09-14 10:00:00 +0000,2022-09-14 03:00:00 -0700,16.7,18.4
2022-09-14 11:00:00 +0000,2022-09-14 04:00:00 -0700,NA,NA
2022-09-14 12:00:00 +0000,2022-09-14 05:00:00 -0700,18.5,18.4
2022-09-14 13:00:00 +0000,2022-09-14 06:00:00 -0700,18.7,18.4
2022-09-14 14:00:00 +0000,2022-09-14 07:00:00 -0700,20.7,18.9
2022-09-14 15:00:00 +0000,2022-09-14 08:00:00 -0700,18.6,18.9
2022-09-14 16:00:00 +0000,2022-09-14 09:00:00 -0700,17.9,18.6
2022-09-14 17:00:00 +0000,2022-09-14 10:00:00 -0700,18.8,18.7
2022-09-14 18:00:00 +0000,2022-09-14 11:00:00 -0700,19.8,18.9
2022-09-14 19:00:00 +0000,2022-09-14 12:00:00 -0700,20.9,19.3
2022-09-14 20:00:00 +0000,2022-09-14 13:00:00 -0700,21.8,20
2022-09-14 21:00:00 +0000,2022-09-14 14:00:00 -0700,22.3,20.7
2022-09-14 22:00:00 +0000,2022-09-14 15:00:00 -0700,21.5,20.7
2022-09-14 23:00:00 +0000,2022-09-14 16:00:00 -0700,21.3,20.8
2022-09-15 00:00:00 +0000,2022-09-14 17:00:00 -0700,21,20.9
2022-09-15 01:00:00 +0000,2022-09-14 18:00:00 -0700,20,20.7
2022-09-15 02:00:00 +0000,2022-09-14 19:00:00 -0700,20.1,20.6
2022-09-15 03:00:00 +0000,2022-09-14 20:00:00 -0700,20.7,20.6
2022-09-15 04:00:00 +0000,2022-09-14 21:00:00 -0700,20.9,20.7
2022-09-15 05:00:00 +0000,2022-09-14 22:00:00 -0700,20.9,20.8
2022-09-15 06:00:00 +0000,2022-09-14 23:00:00 -0700,22,21
2022-09-15 07:00:00 +0000,2022-09-15 00:00:00 -0700,22.1,21.2
2022-09-15 08:00:00 +0000,2022-09-15 01:00:00 -0700,22.3,21.3
2022-09-15 09:00:00 +0000,2022-09-15 02:00:00 -0700,22.1,21.4
2022-09-15 10:00:00 +0000,2022-09-15 03:00:00 -0700,22.4,21.5
2022-09-15 11:00:00 +0000,2022-09-15 04:00:00 -0700,22.1,21.6
2022-09-15 12:00:00 +0000,2022-09-15 05:00:00 -0700,22.6,21.8
2022-09-15 13:00:00 +0000,2022-09-15 06:00:00 -0700,23.2,22.1
2022-09-15 14:00:00 +0000,2022-09-15 07:00:00 -0700,23.9,22.4
2022-09-15 15:00:00 +0000,2022-09-15 08:00:00 -0700,22.4,22.5
2022-09-15 16:00:00 +0000,2022-09-15 09:00:00 -0700,20.9,22.3
2022-09-15 17:00:00 +0000,2022-09-15 10:00:00 -0700,19.7,21.8
2022-09-15 18:00:00 +0000,2022-09-15 11:00:00 -0700,18.7,21
2022-09-15 19:00:00 +0000,2022-09-15 12:00:00 -0700,NA,NA
2022-09-15 20:00:00 +0000,2022-09-15 13:00:00 -0700,18,19.9
2022-09-15 21:00:00 +0000,2022-09-15 14:00:00 -0700,17.8,19.2
2022-09-15 22:00:00 +0000,2022-09-15 15:00:00 -0700,16.7,18.1
2022-09-15 23:00:00 +0000,2022-09-15 16:00:00 -0700,15.7,17
2022-09-16 00:00:00 +0000,2022-09-15 17:00:00 -0700,12.4,14.5
2022-09-16 01:00:00 +0000,2022-09-15 18:00:00 -0700,12.7,13.6
2022-09-16 02:00:00 +0000,2022-09-15 19:00:00 -0700,12.5,13.2
2022-09-16 03:00:00 +0000,2022-09-15 20:00:00 -0700,11.3,12.3
2022-09-16 04:00:00 +0000,2022-09-15 21:00:00 -0700,9.8,10.9
2022-09-16 05:00:00 +0000,2022-09-15 22:00:00 -0700,9.3,10.1
2022-09-16 06:00:00 +0000,2022-09-15 23:00:00 -0700,9,9.5
2022-09-16 07:00:00 +0000,2022-09-16 00:00:00 -0700,8.5,9
2022-09-16 08:00:00 +0000,2022-09-16 01:00:00 -0700,9,9
2022-09-16 09:00:00 +0000,2022-09-16 02:00:00 -0700,9.1,9
2022-09-16 10:00:00 +0000,2022-09-16 03:00:00 -0700,9.2,9.1
2022-09-16 11:00:00 +0000,2022-09-16 04:00:00 -0700,8.6,9
2022-09-16 12:00:00 +0000,2022-09-16 05:00:00 -0700,7.4,8.2
2022-09-16 13:00:00 +0000,2022-09-16 06:00:00 -0700,6.6,7.4
2022-09-16 14:00:00 +0000,2022-09-16 07:00:00 -0700,6,6.7
2022-09-16 15:00:00 +0000,2022-09-16 08:00:00 -0700,4.8,5.7
2022-09-16 16:00:00 +0000,2022-09-16 09:00:00 -0700,4,4.8
2022-09-16 17:00:00 +0000,2022-09-16 10:00:00 -0700,4.1,4.4
2022-09-16 18:00:00 +0000,2022-09-16 11:00:00 -0700,4.1,4.2
2022-09-16 19:00:00 +0000,2022-09-16 12:00:00 -0700,3.6,3.9
2022-09-16 20:00:00 +0000,2022-09-16 13:00:00 -0700,3.2,3.5
2022-09-16 21:00:00 +0000,2022-09-16 14:00:00 -0700,3.3,3.4
2022-09-16 22:00:00 +0000,2022-09-16 15:00:00 -0700,2.9,3.1
2022-09-16 23:00:00 +0000,2022-09-16 16:00:00 -0700,2.8,2.9
2022-09-17 00:00:00 +0000,2022-09-16 17:00:00 -0700,2.7,2.8
2022-09-17 01:00:00 +0000,2022-09-16 18:00:00 -0700,2.5,2.6
2022-09-17 02:00:00 +0000,2022-09-16 19:00:00 -0700,2.6,2.6
2022-09-17 03:00:00 +0000,2022-09-16 20:00:00 -0700,2.8,2.7
2022-09-17 04:00:00 +0000,2022-09-16 21:00:00 -0700,4.9,3.7
2022-09-17 05:00:00 +0000,2022-09-16 22:00:00 -0700,5.3,4.5
2022-09-17 06:00:00 +0000,2022-09-16 23:00:00 -0700,5.2,4.8
2022-09-17 07:00:00 +0000,2022-09-17 00:00:00 -0700,3.7,4.2
2022-09-17 08:00:00 +0000,2022-09-17 01:00:00 -0700,3.3,3.7
2022-09-17 09:00:00 +0000,2022-09-17 02:00:00 -0700,3.8,3.7
2022-09-17 10:00:00 +0000,2022-09-17 03:00:00 -0700,3.8,3.7
2022-09-17 11:00:00 +0000,2022-09-17 04:00:00 -0700,4.2,3.9
2022-09-17 12:00:00 +0000,2022-09-17 05:00:00 -0700,3.9,3.9
2022-09-17 13:00:00 +0000,2022-09-17 06:00:00 -0700,4,3.9
2022-09-17 14:00:00 +0000,2022-09-17 07:00:00 -0700,4.5,4.2
2022-09-17 15:00:00 +0000,2022-09-17 08:00:00 -0700,6,5
2022-09-17 16:00:00 +0000,2022-09-17 09:00:00 -0700,6,5.4
2022-09-17 17:00:00 +0000,2022-09-17 10:00:00 -0700,4.9,5.2
2022-09-17 18:00:00 +0000,2022-09-17 11:00:00 -0700,4.2,4.7
2022-09-17 19:00:00 +0000,2022-09-17 12:00:00 -0700,4,4.4
2022-09-17 20:00:00 +0000,2022-09-17 13:00:00 -0700,3.1,3.7
2022-09-17 21:00:00 +0000,2022-09-17 14:00:00 -0700,2.5,3.1
2022-09-17 22:00:00 +0000,2022-09-17 15:00:00 -0700,2.8,2.9
2022-09-17 23:00:00 +0000,2022-09-17 16:00:00 -0700,3,2.9
2022-09-18 00:00:00 +0000,2022-09-17 17:00:00 -0700,2.9,2.9
2022-09-18 01:00:00 +0000,2022-09-17 18:00:00 -0700,3.7,3.3
2022-09-18 02:00:00 +0000,2022-09-17 19:00:00 -0700,3.3,3.3
2022-09-18 03:00:00 +0000,2022-09-17 20:00:00 -0700,3.6,3.4
2022-09-18 04:00:00 +0000,2022-09-17 21:00:00 -0700,4.1,3.7
2022-09-18 05:00:00 +0000,2022-09-17 22:00:00 -0700,4.6,4.1
2022-09-18 06:00:00 +0000,2022-09-17 23:00:00 -0700,4.2,4.1
2022-09-18 07:00:00 +0000,2022-09-18 00:00:00 -0700,4.2,4.1
2022-09-18 08:00:00 +0000,2022-09-18 01:00:00 -0700,4.9,4.5
2022-09-18 09:00:00 +0000,2022-09-18 02:00:00 -0700,6.4,5.4
2022-09-18 10:00:00 +0000,2022-09-18 03:00:00 -0700,5.1,5.2
2022-09-18 11:00:00 +0000,2022-09-18 04:00:00 -0700,6,5.6
2022-09-18 12:00:00 +0000,2022-09-18 05:00:00 -0700,6.4,6
2022-09-18 13:00:00 +0000,2022-09-18 06:00:00 -0700,6.1,6
2022-09-18 14:00:00 +0000,2022-09-18 07:00:00 -0700,5.9,5.9
2022-09-18 15:00:00 +0000,2022-09-18 08:00:00 -0700,12.1,9
2022-09-18 16:00:00 +0000,2022-09-18 09:00:00 -0700,9.2,9.1
2022-09-18 17:00:00 +0000,2022-09-18 10:00:00 -0700,8.6,8.8
2022-09-18 18:00:00 +0000,2022-09-18 11:00:00 -0700,5.1,6.9
2022-09-18 19:00:00 +0000,2022-09-18 12:00:00 -0700,5,5.9
2022-09-18 20:00:00 +0000,2022-09-18 13:00:00 -0700,7.2,6.5
2022-09-18 21:00:00 +0000,2022-09-18 14:00:00 -0700,8.5,7.5
2022-09-18 22:00:00 +0000,2022-09-18 15:00:00 -0700,8.4,7.9
2022-09-18 23:00:00 +0000,2022-09-18 16:00:00 -0700,7,7.4
2022-09-19 00:00:00 +0000,2022-09-18 17:00:00 -0700,6.7,7
2022-09-19 01:00:00 +0000,2022-09-18 18:00:00 -0700,6.9,6.9
2022-09-19 02:00:00 +0000,2022-09-18 19:00:00 -0700,7.2,7
2022-09-19 03:00:00 +0000,2022-09-18 20:00:00 -0700,7.6,7.3
2022-09-19 04:00:00 +0000,2022-09-18 21:00:00 -0700,8.3,7.7
2022-09-19 05:00:00 +0000,2022-09-18 22:00:00 -0700,8.6,8
2022-09-19 06:00:00 +0000,2022-09-18 23:00:00 -0700,10.8,9.5
2022-09-19 07:00:00 +0000,2022-09-19 00:00:00 -0700,9.7,9.3
2022-09-19 08:00:00 +0000,2022-09-19 01:00:00 -0700,10.5,9.7
2022-09-19 09:00:00 +0000,2022-09-19 02:00:00 -0700,11.5,10.5
2022-09-19 10:00:00 +0000,2022-09-19 03:00:00 -0700,12.4,11.4
2022-09-19 11:00:00 +0000,2022-09-19 04:00:00 -0700,12.8,12.1
2022-09-19 12:00:00 +0000,2022-09-19 05:00:00 -0700,14,13
2022-09-19 13:00:00 +0000,2022-09-19 06:00:00 -0700,14.6,13.8
2022-09-19 14:00:00 +0000,2022-09-19 07:00:00 -0700,17.5,15.6
2022-09-19 15:00:00 +0000,2022-09-19 08:00:00 -0700,NA,NA
